TimeEDT,TemperatureF,Dew PointF,Humidity,Sea Level PressureIn,VisibilityMPH,Wind Direction,Wind SpeedMPH,Gust SpeedMPH,PrecipitationIn,Events,Conditions,WindDirDegrees,DateUTC
12:00 AM,80.6,73.4,79,30.00,6.2,NE,3.5,-,N/A,,Mostly Cloudy,40,2012-10-06 04:00:00
1:00 AM,80.6,73.4,79,29.96,6.2,NE,4.6,-,N/A,,Mostly Cloudy,40,2012-10-06 05:00:00
2:00 AM,81,75,78,29.95,9,NE,5.8,,,,Partly Cloudy,40,2012-10-06 06:00:00
2:00 AM,80.6,75.2,84,29.94,6.2,NE,5.8,-,N/A,,Mostly Cloudy,40,2012-10-06 06:00:00
4:00 AM,80.6,75.2,84,29.91,6.2,Variable,2.3,-,N/A,,Mostly Cloudy,0,2012-10-06 08:00:00
5:00 AM,80,76,83,29.90,9,NE,3.5,,,,Partly Cloudy,40,2012-10-06 09:00:00
5:00 AM,80.6,75.2,84,29.90,6.2,NE,3.5,-,N/A,,Scattered Clouds,40,2012-10-06 09:00:00
6:00 AM,78.8,73.4,83,29.91,6.2,Calm,Calm,-,N/A,,Scattered Clouds,0,2012-10-06 10:00:00
7:00 AM,78.8,73.4,83,29.93,6.2,Calm,Calm,-,N/A,,Scattered Clouds,0,2012-10-06 11:00:00
8:00 AM,81,75,78,29.94,9,Calm,Calm,,,,Scattered Clouds,,2012-10-06 12:00:00
8:00 AM,80.6,75.2,84,29.93,6.2,Calm,Calm,-,N/A,,Scattered Clouds,0,2012-10-06 12:00:00
9:00 AM,84.2,75.2,74,29.93,6.2,ENE,6.9,-,N/A,,Scattered Clouds,70,2012-10-06 13:00:00
10:00 AM,84.2,73.4,70,29.94,6.2,East,6.9,-,N/A,,Scattered Clouds,80,2012-10-06 14:00:00
11:00 AM,,77,,29.95,0,NNE,9.2,,,,Partly Cloudy,30,2012-10-06 15:00:00
11:00 AM,87.8,77.0,70,29.94,6.2,NE,9.2,-,N/A,,Mostly Cloudy,50,2012-10-06 15:00:00
12:00 PM,86.0,75.2,70,29.94,6.2,East,11.5,-,N/A,,Mostly Cloudy,80,2012-10-06 16:00:00
1:00 PM,86.0,75.2,70,29.93,6.2,NE,11.5,-,N/A,,Scattered Clouds,50,2012-10-06 17:00:00
2:00 PM,88,77,63,29.91,9,NE,10.4,,,,Partly Cloudy,50,2012-10-06 18:00:00
2:00 PM,87.8,77.0,70,29.90,6.2,NE,10.4,-,N/A,,Scattered Clouds,50,2012-10-06 18:00:00
3:00 PM,86.0,75.2,70,29.88,6.2,ENE,5.8,-,N/A,,Scattered Clouds,60,2012-10-06 19:00:00
4:00 PM,86.0,75.2,70,29.86,6.2,NE,5.8,-,N/A,,Scattered Clouds,40,2012-10-06 20:00:00
5:00 PM,87,77,64,29.86,9,NE,6.9,,,,Partly Cloudy,40,2012-10-06 21:00:00
5:00 PM,87.8,77.0,70,29.86,6.2,NE,6.9,-,N/A,,Scattered Clouds,40,2012-10-06 21:00:00
6:00 PM,84.2,75.2,74,29.87,6.2,NE,5.8,-,N/A,,Scattered Clouds,50,2012-10-06 22:00:00
7:00 PM,82.4,73.4,74,29.88,6.2,NE,3.5,-,N/A,,Mostly Cloudy,50,2012-10-06 23:00:00
8:00 PM,83,75,72,29.91,9,NNE,8.1,,,,Scattered Clouds,30,2012-10-07 00:00:00
8:00 PM,84.2,75.2,74,29.91,6.2,NNE,8.1,-,N/A,,Mostly Cloudy,30,2012-10-07 00:00:00
9:00 PM,82.4,75.2,79,29.92,6.2,NE,11.5,-,N/A,,Mostly Cloudy,50,2012-10-07 01:00:00
10:00 PM,82.4,75.2,79,29.91,6.2,NE,4.6,-,N/A,,Mostly Cloudy,50,2012-10-07 02:00:00
11:00 PM,82,76,78,29.93,9,NE,10.4,,,,Partly Cloudy,50,2012-10-07 03:00:00
11:00 PM,82.4,77.0,84,29.92,6.2,NE,10.4,-,N/A,,Mostly Cloudy,50,2012-10-07 03:00:00